Погода в Макажое

Россия / Чеченская Республика     42°44′39″N   46°03′42″E
темп.,
°C
ветер,
м/с
пор.,
м/с
влажн.,
%
обл.,
%
осадки,
мм/ч
давл.,
гПа
погр.,
м
13 июня, вс
вс1300:00+11ююв2185100 0.0 101417
03:00+10ююв2286100 0.0 101428
06:00+12юв1184100 0.1 101243
09:00+16ссз216827 0.6 1011688
12:00+15ссз328560 3.7 1011643
15:00+13ссз329198 7.8 1012284
18:00+11сз3397100 2.2 1014196
21:00+9ююз1196100 2.5 101531
14 июня, пн
пн1400:00+8юз11910 0.0 101512
03:00+8ю11880 0.0 101515
06:00+11ююз11810 0.0 101561
09:00+16ссв11630 0.0 1013821
12:00+19св23547 0.0 10111299
15:00+18ссв326524 0.3 1012996
18:00+16с228333 0.3 1013271
21:00+12ююв22920 0.6 101414
15 июня, вт
вт1500:00+11ююв22870 0.0 101325
03:00+10ююв33810 0.0 101344
06:00+13ююв23740 0.0 101170
09:00+20з134981 0.0 10091119
12:00+22юз26416 0.0 10091927
15:00+20ссз43662 1.0 1010695
18:00+17ссз228125 0.6 1011331
21:00+13ююз11900 1.1 101412
16 июня, ср
ср1600:00+12ююв22840 0.0 101420
03:00+11ююв33830 0.0 101435
06:00+13юв34770 0.0 101381
09:00+21юв23510 0.0 1010538
12:00+25вюв24410 0.0 10081457
15:00+26в04400 0.0 10071694
18:00+22св11690 0.0 100853
21:00+15ю33700 0.0 101131
17 июня, чт
чт1700:00+13ю33710 0.0 101138
03:00+13ююв33680 0.0 101037
06:00+15ю23680 0.0 101060
09:00+23ююз12420 0.0 1007719
12:00+23ссз335316 0.1 10081271
15:00+18ссз448564 1.9 1012495
18:00+15ссз229278 0.9 1015347
21:00+14сз229970 1.3 101778